Find Starlink 33930

NORAD ID: 63776 Int'l Des: 2025-091 Owner: SPXS Country: US Constellation: starlink operational
LEOCIRCULAR

实时位置

正在加载3D地球...

关于 Starlink 33930

正在加载描述...

即将过境

Passes for default location (London). Set your location on the main map for personalized predictions.

高度历史

Loading altitude history...

两行轨道根数

1 63776U 25091B 26125.93546426 .00016857 00000-0 62036-3 0 9998
2 63776 42.9976 89.5439 0000510 285.5051 74.5744 15.27596610 57654
Epoch: May 5, 2026 • Age: 11 hours

当前状态

高度 484.8 km
速度 7.63 km/s
星下点 35.80°N, 127.55°E
发射日期 May 2, 2025
运行时间 1 years
类型 internet

技术详情

分类 Payload
质量 575.00 kg
干质量 530.00 kg
总质量 575.00 kg
长度 0.30 m
直径 4.10 m
跨度 29.00 m
形状 Box + pan
制造商 SPXS
平台类型 Starlink V2MO
阶段状态 In Orbit
所有者/国家 SPXS/US

Most Searched